Regional Weather Roundup
Issued by NWS

Home | Current Version | Previous Version | Graphics & Text | Print | Product List | Glossary On
Versions: 1 2 3 4 5 6 7 8 9 10 11 12 13 14 15 16 17 18 19 20 21 22 23 24 25 26 27 28 29 30 31 32 33 34 35 36 37 38 39 40 41 42 43 44 45 46 47 48 49 50
000
ASUS43 KMPX 090410
RWRMN
WEATHER ROUNDUP FOR MINNESOTA
NATIONAL WEATHER SERVICE TWIN CITIES/CHANHASSEN MN
1000 PM CST MON FEB 08 2016


NOTE: "FAIR" INDICATES FEW OR NO CLOUDS BELOW 12,000 FEET WITH NO
SIGNIFICANT WEATHER AND/OR OBSTRUCTIONS TO VISIBILITY. N/A MEANS
CURRENT SKY AND/OR WEATHER CONDITIONS ARE NOT AVAILABLE.

MNZ060>063-068>070-090500-
   Twin Cities Metro

CITY           SKY/WX    TMP DP  RH WIND       PRES   REMARKS
TWIN CITIES    FLURRIES  13   5  70 N15G23    29.98R WCI  -3
ST PAUL        FLURRIES  13   5  70 N18       29.99R WCI  -4
CRYSTAL        CLOUDY    13   4  67 NW17      29.98R WCI  -4
BLAINE         CLOUDY    16   7  67 NW17      29.97S WCI   0
LAKEVILLE      FLURRIES  12   7  79 N15G25    29.96R WCI  -4
EDEN PRAIRIE   FLURRIES  14   4  64 N13G22    29.97S WCI   0
SOUTH ST PAUL  FLURRIES  14   6  70 N17G23    29.97S WCI  -3
LAKE ELMO      CLOUDY    14   7  73 NW14      29.96S WCI  -1
$$
MNZ001>005-007-008-013>017-022>024-027-028-090500-
   Northwest Minnesota

CITY           SKY/WX    TMP DP  RH WIND       PRES   REMARKS
BEMIDJI        LGT SNOW   5   0  78 N14G23    30.09R WCI -12
HALLOCK        CLEAR      5   0  78 N14       30.25S WCI -12
ROSEAU         CLEAR      3  -2  78 NW12      30.19R WCI -13
WARROAD        PTCLDY     3   0  85 NW8       30.17S WCI -10
CROOKSTON      CLEAR      7   1  78 N15       30.23F WCI -11
FOSSTON        LGT SNOW   7   1  78 NW18      30.15S WCI -12
DETROIT LAKES  LGT SNOW   9   5  85 NW20G28   30.13S WCI -11
MOORHEAD       CLEAR      9   1  72 N22G28    30.21S WCI -11
PARK RAPIDS    CLOUDY     8   0  69 N23G29    30.05R WCI -13
MAHNOMEN       CLOUDY     7   3  84 N21G26    30.15R FOG     WCI -13
$$
MNZ006-009>011-018-025>026-090500-
   North Central Minnesota

CITY           SKY/WX    TMP DP  RH WIND       PRES   REMARKS
BAUDETTE       CLOUDY     4  -2  76 NW18G26   30.11R HAZE    WCI -16
FLAG ISLAND    PTCLDY     1  -2  85 NW16      30.15S WCI -18
INTL FALLS     CLOUDY     2  -4  76 NW14      30.06R WCI -16
WASKISH        CLOUDY     5   0  78 NW8       30.11R WCI  -8
LONGVILLE      CLOUDY     7   0  72 NW7       30.04R WCI  -5
GRAND RAPIDS   CLOUDY     3  -4  72 NW21G28   30.00S WCI -18
CRANE LAKE     CLOUDY     1  -2  85 NW7       30.03R WCI -11
ORR            CLOUDY     1  -6  71 NW8       29.97S WCI -12
COOK           FLURRIES   1  -2  85 NW8G16    29.99R WCI -12
WALKER         CLOUDY     6  -1  73 NW12G23   30.06R WCI -10
$$
MNZ012-019>021-037-090500-
   Northeast Minnesota

CITY           SKY/WX    TMP DP  RH WIND       PRES   REMARKS
DULUTH         MOCLDY     4  -3  73 NW13G22   29.91R WCI -13
ELY            LGT SNOW   3   0  85 NW9G18    29.92S WCI -11
HIBBING        MIX PCPN   2  -2  83 NW24G32   29.97R FOG     WCI -21
EVELETH        MOCLDY     5   0  78 NW12G21   29.96S WCI -11
DULUTH HARBOR  CLOUDY    10   1  67 NW12G17   30.00S WCI  -4
TWO HARBORS    CLOUDY     9   1  72 NW6G16    29.90S WCI  -1
SILVER BAY     FLURRIES   9   1  72 NW6       29.88S WCI  -1
GRAND MARAIS     N/A     11   0  61 VRB3      29.89S
G MARAIS ARPRT CLOUDY     3  -2  78 NW20G31   29.75S HAZE    WCI -18
$$
MNZ029>031-032-039>041-046>048-054>057-064-090500-
   West Central Minnesota

CITY           SKY/WX    TMP DP  RH WIND       PRES   REMARKS
FERGUS FALLS   CLOUDY     9   1  72 N25G35    30.18S WCI -13
WHEATON        PTCLDY    10   3  72 NW23G29   30.20F WCI -10
MORRIS         MOCLDY     9   1  72 NW29G36   30.12S WCI -14
ALEXANDRIA     CLOUDY     8   1  73 N26G35    30.07R WCI -14
ELBOW LAKE     CLOUDY     8   3  80 NW22G28   30.14R WCI -12
WADENA         CLOUDY     7   1  78 NW18G25   30.07R WCI -12
GLENWOOD       CLOUDY     9   1  72 NW22G28   30.07R WCI -11
APPLETON       CLOUDY    10   3  72 N24G35    30.15S WCI -10
BENSON         CLOUDY     9   1  72 N22G31    30.11S WCI -11
ORTONVILLE     LGT SNOW  10   3  72 N28G39    30.15F WCI -11
MADISON        CLOUDY    12   7  79 N23G33    30.16F HAZE    WCI  -7
WILLMAR        CLOUDY    12   5  73 N23G30    30.08R WCI  -7
$$
MNZ033>034-036-042>043-049>051-058-059-090500-
   Central Minnesota

CITY           SKY/WX    TMP DP  RH WIND       PRES   REMARKS
ST CLOUD       CLOUDY    11   2  67 N18G24    30.02R WCI  -7
SAUK CENTRE    CLOUDY     9   3  77 NW20G29   30.06R HAZE    WCI -11
PAYNESVILLE    CLOUDY    11   6  81 NW14G22   30.05R WCI  -5
AITKIN         FLURRIES   9  -2  61 NW15      30.00R WCI  -8
PINE RIVER     CLOUDY     9   1  72 NW12G18   30.07R WCI  -6
BRAINERD       MIX PCPN   8   1  73 N18G28    30.03R WCI -11
STAPLES        CLOUDY     9   1  72 N16G23    30.05R WCI  -9
LONG PRAIRIE   CLOUDY     9   3  78 NW17G28   30.05R HAZE    WCI -10
LITTLE FALLS   CLOUDY    10   1  67 NW9       30.04R WCI  -2
LITCHFIELD     CLOUDY    12   7  79 NW24G30   30.03R WCI  -8
BUFFALO        FLURRIES  12   4  70 NW13G21   30.01S WCI  -3
MAPLE LAKE     CLOUDY    13   5  71 NW23G30   30.02R WCI  -7
$$
MNZ037-044-045-052-053-090500-
   East Central Minnesota

CITY           SKY/WX    TMP DP  RH WIND       PRES   REMARKS
PRINCETON      CLOUDY    12   3  67 NW15      29.99S WCI  -4
MORA           CLOUDY    12   3  67 N9G20     30.00R WCI   0
CAMBRIDGE      FLURRIES  14   3  62 NW15G25   29.97R WCI  -1
RUSH CITY      CLOUDY    10   2  67 N14G23    29.98S WCI  -5
MOOSE LAKE     CLOUDY     9   0  66 N15G24    29.96R WCI  -8
HINCKLEY       CLOUDY    10   1  67 N14G24    29.98R WCI  -5
CLOQUET        CLOUDY     7  -2  66 NW14      29.94R WCI -10
MCGREGOR       CLOUDY     9   1  72 NW15      30.00R WCI  -8
$$
MNZ071>073-080-081-089-090-097-098-090500-
   Southwest Minnesota

CITY           SKY/WX    TMP DP  RH WIND       PRES   REMARKS
MONTEVIDEO     CLOUDY    10   5  79 N25G33    30.14R WCI -10
GRANITE FALLS  CLOUDY    13   6  73 NW20G29   30.13S WCI  -5
CANBY          CLOUDY    15  10  79 NW24G31   30.15F WCI  -4
MARSHALL       LGT SNOW  10   7  85 N28G33    30.10S FOG     WCI -11
REDWOOD FALLS  CLOUDY    11   2  67 NW16G30   30.08R WCI  -6
OLIVIA         CLOUDY    12   5  73 NW24G30   30.06R WCI  -8
PIPESTONE      LGT SNOW  16   5  62 N17G25    30.08R WCI   0
WINDOM         CLEAR      9   3  78 NW28G38   30.04R HAZE    WCI -13
WORTHINGTON    CLOUDY   N/A N/A N/A N31G39    30.06R VSB 1
JACKSON        MOCLDY    10   3  72 NW33G52   30.02R WCI -13
TRACY          LGT SNOW  11   6  82 N24G39    30.09R WCI  -9
SLAYTON        LGT SNOW   9   7  92 NW22G33   30.07R WCI -11
$$
MNZ065>067-074>077-082>085-091>093-090500-
   South Central Minnesota

CITY           SKY/WX    TMP DP  RH WIND       PRES   REMARKS
MANKATO        CLOUDY   N/A N/A N/A NW23G30   29.97S
NEW ULM        CLOUDY    10   3  72 NW21G26   30.02R WCI  -9
ST JAMES       CLOUDY    10   5  79 NW24G31   30.04R WCI -10
FAIRMONT       CLOUDY    12   1  62 NW30G36   29.98S WCI  -9
GLENCOE        CLOUDY    13   8  79 NW16G23   30.00R WCI  -3
FARIBAULT      FLURRIES  12   7  79 NW17      29.96R WCI  -5
OWATONNA       LGT SNOW  12   7  79 NW20      29.93S WCI  -6
WASECA         CLOUDY    12   5  73 NW25      29.97R WCI  -8
ALBERT LEA     FLURRIES  12   7  79 NW17G24   29.92S WCI  -5
$$
MNZ078>079-086>088-094>096-090500-
   Southeast Minnesota

CITY           SKY/WX    TMP DP  RH WIND       PRES   REMARKS
ROCHESTER      LGT SNOW  13   8  81 N20       29.88S WCI  -5
RED WING       CLOUDY    14   3  62 N9G20     29.94S WCI   2
STANTON        LGT SNOW  15   8  73 NW16      29.94S WCI  -1
DODGE CENTER   LGT SNOW  12   9  85 N14       29.89R WCI  -3
WINONA         CLOUDY    16  10  79 NW10G16   29.92S WCI   3
AUSTIN         LGT SNOW  12   9  85 NW18G24   29.90S WCI  -5
PRESTON        CLOUDY    12   7  79 N15       29.87S WCI  -4
$$
ABBREVIATIONS USED IN REMARKS
   TC - TEMPERATURES IN CELSIUS
  WCI - WIND CHILL INDEX
   HX - HEAT INDEX
  VSB - VISIBILITY
$$



USA.gov is the U.S. government's official web portal to all federal, state and local government web resources and services.